| time (UTC) | temp F | wind direction | speed knots | gust knots | rain 1hr in | rain 24hr in | rain mn in | humidity % | barometer mb |
| 20260505124512 | 58 | 205 | 0.9 | 5.2 | 0.00 | 0.00 | 0.00 | 56 | 1014.3 |
| 20260505123014 | 56 | 171 | 3.5 | 7.0 | 0.00 | 0.00 | 0.00 | 58 | 1014.2 |
| 20260505121510 | 54 | 148 | 0.9 | 2.6 | 0.00 | 0.00 | 0.00 | 61 | 1014.2 |
| 20260505120015 | 50 | 189 | 0.0 | 1.7 | 0.00 | 0.00 | 0.00 | 63 | 1014.3 |
| 20260505114531 | 48 | 140 | 0.0 | 0.9 | 0.00 | 0.00 | 0.00 | 64 | 1014.4 |
| 20260505113017 | 47 | 257 | 0.0 | 0.0 | 0.00 | 0.00 | 0.00 | 64 | 1014.2 |
| 20260505111513 | 46 | 260 | 0.0 | 1.7 | 0.00 | 0.00 | 0.00 | 66 | 1014.0 |
| 20260505101521 | 45 | 319 | 0.0 | 2.6 | 0.00 | 0.00 | 0.00 | 65 | 1013.6 |
| 20260505100009 | 46 | 319 | 0.0 | 3.5 | 0.00 | 0.00 | 0.00 | 65 | 1013.6 |
| 20260505094521 | 46 | 319 | 0.0 | 1.7 | 0.00 | 0.00 | 0.00 | 64 | 1013.6 |
| 20260505093012 | 46 | 319 | 0.0 | 0.9 | 0.00 | 0.00 | 0.00 | 64 | 1013.5 |
| 20260505091507 | 47 | 319 | 3.5 | 5.2 | 0.00 | 0.00 | 0.00 | 63 | 1013.3 |
| 20260505090044 | 48 | 275 | 0.0 | 1.7 | 0.00 | 0.00 | 0.00 | 60 | 1013.1 |
| 20260505084510 | 50 | 275 | 0.0 | 3.5 | 0.00 | 0.00 | 0.00 | 58 | 1013.1 |
| 20260505083019 | 50 | 252 | 0.0 | 0.9 | 0.00 | 0.00 | 0.00 | 59 | 1013.0 |
| 20260505081520 | 49 | 252 | 0.0 | 1.7 | 0.00 | 0.00 | 0.00 | 60 | 1012.8 |
| 20260505080012 | 50 | 252 | 0.0 | 2.6 | 0.00 | 0.00 | 0.00 | 58 | 1012.5 |
| 20260505074521 | 52 | 251 | 0.0 | 2.6 | 0.00 | 0.00 | 0.00 | 57 | 1012.1 |
| 20260505073012 | 50 | 252 | 0.0 | 1.7 | 0.00 | 0.00 | 0.00 | 61 | 1012.1 |
| 20260505071524 | 49 | 252 | 0.9 | 2.6 | 0.00 | 0.00 | 0.00 | 61 | 1012.1 |
| 20260505070025 | 50 | 253 | 0.0 | 2.6 | 0.00 | 0.00 | 0.00 | 61 | 1012.0 |
| 20260505064513 | 49 | 253 | 0.0 | 1.7 | 0.00 | 0.00 | 0.00 | 61 | 1012.1 |
| 20260505063016 | 49 | 253 | 0.0 | 1.7 | 0.00 | 0.00 | 0.00 | 61 | 1012.4 |
| 20260505061525 | 50 | 253 | 0.9 | 1.7 | 0.00 | 0.00 | 0.00 | 62 | 1012.4 |
| 20260505060017 | 50 | 253 | 0.0 | 0.9 | 0.00 | 0.00 | 0.00 | 61 | 1012.4 |
| 20260505054528 | 52 | 253 | 0.0 | 0.9 | 0.00 | 0.00 | 0.00 | 59 | 1012.3 |
| 20260505053023 | 52 | 253 | 0.0 | 1.7 | 0.00 | 0.00 | 0.00 | 58 | 1012.3 |
| 20260505051518 | 53 | 253 | 0.0 | 0.9 | 0.00 | 0.00 | 0.00 | 57 | 1012.2 |
| 20260505041526 | 53 | 225 | 0.0 | 3.5 | 0.00 | 0.00 | 0.00 | 58 | 1012.4 |
| 20260505040004 | 53 | 221 | 0.0 | 1.7 | 0.00 | 0.00 | 0.00 | 60 | 1012.4 |
| 20260505034507 | 53 | 221 | 0.0 | 0.9 | 0.00 | 0.00 | 0.00 | 59 | 1012.5 |
| 20260505033008 | 53 | 221 | 0.0 | 1.7 | 0.00 | 0.00 | 0.00 | 59 | 1012.5 |
| 20260505031505 | 54 | 221 | 0.0 | 0.9 | 0.00 | 0.00 | 0.00 | 58 | 1012.7 |
| 20260505030010 | 55 | 221 | 0.0 | 0.9 | 0.00 | 0.00 | 0.00 | 56 | 1012.7 |
| 20260505024518 | 56 | 221 | 0.0 | 0.0 | 0.00 | 0.00 | 0.00 | 53 | 1012.7 |
| 20260505023004 | 57 | 221 | 0.9 | 2.6 | 0.00 | 0.00 | 0.00 | 52 | 1012.7 |
| 20260505021528 | 58 | 221 | 0.0 | 0.9 | 0.00 | 0.00 | 0.00 | 51 | 1012.8 |
| 20260505020006 | 59 | 221 | 0.9 | 1.7 | 0.00 | 0.00 | 0.00 | 49 | 1012.7 |
| 20260505014508 | 60 | 221 | 0.0 | 0.0 | 0.00 | 0.00 | 0.00 | 46 | 1012.7 |
| 20260505013014 | 62 | 221 | 0.0 | 1.7 | 0.00 | 0.00 | 0.00 | 44 | 1012.5 |
| 20260505011512 | 63 | 221 | 0.9 | 1.7 | 0.00 | 0.00 | 0.00 | 43 | 1012.2 |
| 20260505010009 | 65 | 221 | 0.9 | 2.6 | 0.00 | 0.00 | 0.00 | 38 | 1012.1 |
| 20260505004516 | 67 | 221 | 0.0 | 1.7 | 0.00 | 0.00 | 0.00 | 36 | 1011.9 |
| 20260505003006 | 68 | 221 | 0.9 | 1.7 | 0.00 | 0.00 | 0.00 | 34 | 1011.8 |
| 20260505001516 | 69 | 223 | 0.0 | 3.5 | 0.00 | 0.00 | 0.00 | 33 | 1011.8 |
| 20260505000015 | 70 | 213 | 0.9 | 3.5 | 0.00 | 0.00 | 0.00 | 32 | 1011.8 |
| 20260504234517 | 71 | 169 | 0.9 | 5.2 | 0.00 | 0.00 | 0.00 | 31 | 1011.6 |
| 20260504233008 | 72 | 221 | 1.7 | 5.2 | 0.00 | 0.00 | 0.00 | 29 | 1011.4 |
| 20260504231514 | 73 | 208 | 1.7 | 9.6 | 0.00 | 0.00 | 0.00 | 29 | 1011.4 |
| 20260504230014 | 73 | 214 | 2.6 | 9.6 | 0.00 | 0.00 | 0.00 | 28 | 1011.3 |
| 20260504224523 | 74 | 211 | 5.2 | 11.3 | 0.00 | 0.00 | 0.00 | 28 | 1011.2 |
| 20260504223012 | 74 | 210 | 4.3 | 9.6 | 0.00 | 0.00 | 0.00 | 27 | 1011.3 |
| 20260504221510 | 75 | 167 | 5.2 | 9.6 | 0.00 | 0.00 | 0.00 | 28 | 1011.2 |
| 20260504220003 | 75 | 195 | 1.7 | 9.6 | 0.00 | 0.00 | 0.00 | 29 | 1011.2 |
| 20260504214503 | 75 | 232 | 4.3 | 11.3 | 0.00 | 0.00 | 0.00 | 27 | 1011.3 |
| 20260504213004 | 75 | 168 | 1.7 | 7.8 | 0.00 | 0.00 | 0.00 | 30 | 1011.2 |
| 20260504211504 | 75 | 171 | 2.6 | 7.8 | 0.00 | 0.00 | 0.00 | 28 | 1011.3 |
| 20260504210006 | 75 | 192 | 2.6 | 7.8 | 0.00 | 0.00 | 0.00 | 30 | 1011.3 |
| 20260504204509 | 74 | 195 | 3.5 | 9.6 | 0.00 | 0.00 | 0.00 | 29 | 1011.4 |
| 20260504203003 | 75 | 204 | 1.7 | 9.6 | 0.00 | 0.00 | 0.00 | 29 | 1011.4 |
| 20260504201504 | 74 | 205 | 1.7 | 12.2 | 0.00 | 0.00 | 0.00 | 30 | 1011.5 |
| 20260504200004 | 74 | 236 | 5.2 | 10.4 | 0.00 | 0.00 | 0.00 | 30 | 1011.7 |
| 20260504194507 | 74 | 278 | 4.3 | 13.9 | 0.00 | 0.00 | 0.00 | 31 | 1011.8 |
| 20260504193003 | 73 | 189 | 3.5 | 13.0 | 0.00 | 0.00 | 0.00 | 28 | 1011.8 |
| 20260504191504 | 73 | 231 | 4.3 | 11.3 | 0.00 | 0.00 | 0.00 | 29 | 1012.2 |
| 20260504190006 | 73 | 198 | 4.3 | 8.7 | 0.00 | 0.00 | 0.00 | 30 | 1012.2 |
| 20260504184504 | 73 | 331 | 2.6 | 12.2 | 0.00 | 0.00 | 0.00 | 32 | 1012.6 |
| 20260504183005 | 72 | 208 | 5.2 | 9.6 | 0.00 | 0.00 | 0.00 | 30 | 1012.9 |
| 20260504181503 | 71 | 173 | 3.5 | 9.6 | 0.00 | 0.00 | 0.00 | 32 | 1013.1 |
| 20260504180004 | 71 | 176 | 4.3 | 10.4 | 0.00 | 0.00 | 0.00 | 31 | 1013.2 |
| 20260504174506 | 71 | 159 | 4.3 | 8.7 | 0.00 | 0.00 | 0.00 | 33 | 1013.4 |
| 20260504173007 | 70 | 265 | 3.5 | 13.0 | 0.00 | 0.00 | 0.00 | 32 | 1013.2 |
| 20260504171504 | 69 | 225 | 3.5 | 15.6 | 0.00 | 0.00 | 0.00 | 31 | 1013.5 |